Time,TemperatureF,DewpointF,PressureIn,WindDirection,WindDirectionDegrees,WindSpeedMPH,WindSpeedGustMPH,Humidity,HourlyPrecipIn,Conditions,Clouds,dailyrainin,SoftwareType,DateUTC
2013-04-23 00:02:00,35.0,18.0,-100.00,North,-999,-999.0,-999.0,49,-99.99,,,-99.99,,2013-04-23 07:02:00,
2013-04-23 00:11:00,34.0,20.0,-100.00,North,-999,-999.0,-999.0,58,-99.99,,,-99.99,,2013-04-23 07:11:00,
2013-04-23 00:21:00,34.0,20.0,-100.00,North,-999,-999.0,-999.0,58,-99.99,,,-99.99,,2013-04-23 07:21:00,
2013-04-23 00:32:00,33.0,19.0,-100.00,North,-999,-999.0,-999.0,56,-99.99,,,-99.99,,2013-04-23 07:32:00,
2013-04-23 00:42:00,33.0,18.0,-100.00,North,-999,-999.0,-999.0,54,-99.99,,,-99.99,,2013-04-23 07:42:00,
2013-04-23 00:52:00,32.0,18.0,-100.00,North,-999,-999.0,-999.0,57,-99.99,,,-99.99,,2013-04-23 07:52:00,
2013-04-23 01:01:00,32.0,18.0,-100.00,North,-999,-999.0,-999.0,57,-99.99,,,-99.99,,2013-04-23 08:01:00,
2013-04-23 01:11:00,32.0,20.0,-100.00,North,-999,-999.0,-999.0,60,-99.99,,,-99.99,,2013-04-23 08:11:00,
2013-04-23 01:21:00,31.0,20.0,-100.00,North,-999,-999.0,-999.0,62,-99.99,,,-99.99,,2013-04-23 08:21:00,
2013-04-23 01:31:00,31.0,20.0,-100.00,North,-999,-999.0,-999.0,62,-99.99,,,-99.99,,2013-04-23 08:31:00,
2013-04-23 01:42:00,30.0,22.0,-100.00,North,-999,-999.0,-999.0,71,-99.99,,,-99.99,,2013-04-23 08:42:00,
2013-04-23 01:52:00,29.0,22.0,-100.00,North,-999,-999.0,-999.0,72,-99.99,,,-99.99,,2013-04-23 08:52:00,
2013-04-23 02:01:00,29.0,22.0,-100.00,North,-999,-999.0,-999.0,72,-99.99,,,-99.99,,2013-04-23 09:01:00,
2013-04-23 02:11:00,29.0,21.0,-100.00,North,-999,-999.0,-999.0,70,-99.99,,,-99.99,,2013-04-23 09:11:00,
2013-04-23 02:21:00,31.0,17.0,-100.00,North,-999,-999.0,-999.0,56,-99.99,,,-99.99,,2013-04-23 09:21:00,
2013-04-23 02:32:00,31.0,17.0,-100.00,North,-999,-999.0,-999.0,56,-99.99,,,-99.99,,2013-04-23 09:32:00,
2013-04-23 02:42:00,31.0,19.0,-100.00,North,-999,-999.0,-999.0,62,-99.99,,,-99.99,,2013-04-23 09:42:00,
2013-04-23 02:53:00,31.0,19.0,-100.00,North,-999,-999.0,-999.0,62,-99.99,,,-99.99,,2013-04-23 09:53:00,
2013-04-23 03:02:00,31.0,19.0,-100.00,North,-999,-999.0,-999.0,62,-99.99,,,-99.99,,2013-04-23 10:02:00,
2013-04-23 03:12:00,29.0,21.0,-100.00,North,-999,-999.0,-999.0,70,-99.99,,,-99.99,,2013-04-23 10:12:00,
2013-04-23 03:22:00,29.0,22.0,-100.00,North,-999,-999.0,-999.0,75,-99.99,,,-99.99,,2013-04-23 10:22:00,
2013-04-23 03:32:00,29.0,22.0,-100.00,North,-999,-999.0,-999.0,75,-99.99,,,-99.99,,2013-04-23 10:32:00,
2013-04-23 03:42:00,29.0,20.0,-100.00,North,-999,-999.0,-999.0,67,-99.99,,,-99.99,,2013-04-23 10:42:00,
2013-04-23 03:52:00,29.0,21.0,-100.00,North,-999,-999.0,-999.0,72,-99.99,,,-99.99,,2013-04-23 10:52:00,
2013-04-23 04:02:00,29.0,21.0,-100.00,North,-999,-999.0,-999.0,72,-99.99,,,-99.99,,2013-04-23 11:02:00,
2013-04-23 04:12:00,29.0,20.0,-100.00,North,-999,-999.0,-999.0,69,-99.99,,,-99.99,,2013-04-23 11:12:00,
2013-04-23 04:21:00,29.0,20.0,-100.00,North,-999,-999.0,-999.0,70,-99.99,,,-99.99,,2013-04-23 11:21:00,
2013-04-23 04:32:00,29.0,20.0,-100.00,North,-999,-999.0,-999.0,70,-99.99,,,-99.99,,2013-04-23 11:32:00,
2013-04-23 04:42:00,29.0,19.0,-100.00,North,-999,-999.0,-999.0,67,-99.99,,,-99.99,,2013-04-23 11:42:00,
2013-04-23 04:53:00,28.0,20.0,-100.00,North,-999,-999.0,-999.0,71,-99.99,,,-99.99,,2013-04-23 11:53:00,
2013-04-23 05:02:00,28.0,20.0,-100.00,North,-999,-999.0,-999.0,71,-99.99,,,-99.99,,2013-04-23 12:02:00,
2013-04-23 05:12:00,29.0,18.0,-100.00,North,-999,-999.0,-999.0,64,-99.99,,,-99.99,,2013-04-23 12:12:00,
2013-04-23 05:22:00,29.0,18.0,-100.00,North,-999,-999.0,-999.0,65,-99.99,,,-99.99,,2013-04-23 12:22:00,
2013-04-23 05:32:00,29.0,18.0,-100.00,North,-999,-999.0,-999.0,65,-99.99,,,-99.99,,2013-04-23 12:32:00,
2013-04-23 05:41:00,29.0,18.0,-100.00,North,-999,-999.0,-999.0,65,-99.99,,,-99.99,,2013-04-23 12:41:00,
2013-04-23 05:52:00,28.0,21.0,-100.00,North,-999,-999.0,-999.0,73,-99.99,,,-99.99,,2013-04-23 12:52:00,
2013-04-23 06:01:00,28.0,21.0,-100.00,North,-999,-999.0,-999.0,73,-99.99,,,-99.99,,2013-04-23 13:01:00,
2013-04-23 06:11:00,28.0,20.0,-100.00,North,-999,-999.0,-999.0,72,-99.99,,,-99.99,,2013-04-23 13:11:00,
2013-04-23 06:21:00,28.0,21.0,-100.00,North,-999,-999.0,-999.0,74,-99.99,,,-99.99,,2013-04-23 13:21:00,
2013-04-23 06:32:00,28.0,21.0,-100.00,North,-999,-999.0,-999.0,74,-99.99,,,-99.99,,2013-04-23 13:32:00,
2013-04-23 06:41:00,27.0,22.0,-100.00,North,-999,-999.0,-999.0,80,-99.99,,,-99.99,,2013-04-23 13:41:00,
2013-04-23 06:52:00,28.0,21.0,-100.00,North,-999,-999.0,-999.0,74,-99.99,,,-99.99,,2013-04-23 13:52:00,
2013-04-23 07:01:00,28.0,21.0,-100.00,North,-999,-999.0,-999.0,74,-99.99,,,-99.99,,2013-04-23 14:01:00,
2013-04-23 07:11:00,28.0,20.0,-100.00,North,-999,-999.0,-999.0,72,-99.99,,,-99.99,,2013-04-23 14:11:00,
2013-04-23 07:22:00,28.0,22.0,-100.00,North,-999,-999.0,-999.0,76,-99.99,,,-99.99,,2013-04-23 14:22:00,
2013-04-23 07:31:00,28.0,22.0,-100.00,North,-999,-999.0,-999.0,76,-99.99,,,-99.99,,2013-04-23 14:31:00,
2013-04-23 07:42:00,29.0,20.0,-100.00,North,-999,-999.0,-999.0,70,-99.99,,,-99.99,,2013-04-23 14:42:00,
2013-04-23 07:52:00,29.0,21.0,-100.00,North,-999,-999.0,-999.0,72,-99.99,,,-99.99,,2013-04-23 14:52:00,
2013-04-23 08:01:00,29.0,21.0,-100.00,North,-999,-999.0,-999.0,72,-99.99,,,-99.99,,2013-04-23 15:01:00,
2013-04-23 08:12:00,29.0,21.0,-100.00,North,-999,-999.0,-999.0,73,-99.99,,,-99.99,,2013-04-23 15:12:00,
2013-04-23 08:21:00,30.0,23.0,-100.00,North,-999,-999.0,-999.0,74,-99.99,,,-99.99,,2013-04-23 15:21:00,
2013-04-23 08:32:00,30.0,23.0,-100.00,North,-999,-999.0,-999.0,74,-99.99,,,-99.99,,2013-04-23 15:32:00,
2013-04-23 08:33:00,32.0,24.0,-100.00,North,-999,-999.0,-999.0,71,-99.99,,,-99.99,,2013-04-23 15:33:00,
2013-04-23 08:42:00,30.0,24.0,-100.00,North,-999,-999.0,-999.0,77,-99.99,,,-99.99,,2013-04-23 15:42:00,
2013-04-23 08:53:00,31.0,25.0,-100.00,North,-999,-999.0,-999.0,78,-99.99,,,-99.99,,2013-04-23 15:53:00,
2013-04-23 09:02:00,31.0,25.0,-100.00,North,-999,-999.0,-999.0,78,-99.99,,,-99.99,,2013-04-23 16:02:00,
2013-04-23 09:12:00,32.0,24.0,-100.00,North,-999,-999.0,-999.0,71,-99.99,,,-99.99,,2013-04-23 16:12:00,
2013-04-23 09:23:00,32.0,24.0,-100.00,North,-999,-999.0,-999.0,71,-99.99,,,-99.99,,2013-04-23 16:23:00,
2013-04-23 09:43:00,36.0,24.0,-100.00,North,-999,-999.0,-999.0,62,-99.99,,,-99.99,,2013-04-23 16:43:00,
2013-04-23 09:53:00,36.0,24.0,-100.00,North,-999,-999.0,-999.0,62,-99.99,,,-99.99,,2013-04-23 16:53:00,
2013-04-23 10:02:00,36.0,24.0,-100.00,North,-999,-999.0,-999.0,62,-99.99,,,-99.99,,2013-04-23 17:02:00,
2013-04-23 11:52:00,49.0,14.0,-100.00,North,-999,-999.0,-999.0,24,-99.99,,,-99.99,,2013-04-23 18:52:00,
2013-04-23 12:02:00,49.0,14.0,-100.00,North,-999,-999.0,-999.0,24,-99.99,,,-99.99,,2013-04-23 19:02:00,
2013-04-23 12:11:00,49.0,14.0,-100.00,North,-999,-999.0,-999.0,24,-99.99,,,-99.99,,2013-04-23 19:11:00,
2013-04-23 12:21:00,51.0,17.0,-100.00,North,-999,-999.0,-999.0,26,-99.99,,,-99.99,,2013-04-23 19:21:00,
2013-04-23 12:32:00,51.0,17.0,-100.00,North,-999,-999.0,-999.0,26,-99.99,,,-99.99,,2013-04-23 19:32:00,
2013-04-23 12:42:00,51.0,17.0,-100.00,North,-999,-999.0,-999.0,26,-99.99,,,-99.99,,2013-04-23 19:42:00,
2013-04-23 12:52:00,53.0,11.0,-100.00,North,-999,-999.0,-999.0,18,-99.99,,,-99.99,,2013-04-23 19:52:00,
2013-04-23 13:01:00,53.0,11.0,-100.00,North,-999,-999.0,-999.0,18,-99.99,,,-99.99,,2013-04-23 20:01:00,
2013-04-23 13:11:00,54.0,10.0,-100.00,North,-999,-999.0,-999.0,17,-99.99,,,-99.99,,2013-04-23 20:11:00,
2013-04-23 13:21:00,55.0,11.0,-100.00,North,-999,-999.0,-999.0,17,-99.99,,,-99.99,,2013-04-23 20:21:00,
2013-04-23 13:31:00,55.0,11.0,-100.00,North,-999,-999.0,-999.0,17,-99.99,,,-99.99,,2013-04-23 20:31:00,
2013-04-23 13:42:00,54.0,13.0,-100.00,North,-999,-999.0,-999.0,19,-99.99,,,-99.99,,2013-04-23 20:42:00,
2013-04-23 13:52:00,54.0,15.0,-100.00,North,-999,-999.0,-999.0,21,-99.99,,,-99.99,,2013-04-23 20:52:00,
2013-04-23 14:01:00,54.0,15.0,-100.00,North,-999,-999.0,-999.0,21,-99.99,,,-99.99,,2013-04-23 21:01:00,
2013-04-23 14:11:00,55.0,17.0,-100.00,North,-999,-999.0,-999.0,22,-99.99,,,-99.99,,2013-04-23 21:11:00,
2013-04-23 14:21:00,55.0,18.0,-100.00,North,-999,-999.0,-999.0,23,-99.99,,,-99.99,,2013-04-23 21:21:00,
2013-04-23 14:32:00,55.0,18.0,-100.00,North,-999,-999.0,-999.0,23,-99.99,,,-99.99,,2013-04-23 21:32:00,
2013-04-23 14:43:00,53.0,18.0,-100.00,North,-999,-999.0,-999.0,25,-99.99,,,-99.99,,2013-04-23 21:43:00,
2013-04-23 14:52:00,52.0,21.0,-100.00,North,-999,-999.0,-999.0,29,-99.99,,,-99.99,,2013-04-23 21:52:00,
2013-04-23 15:03:00,52.0,21.0,-100.00,North,-999,-999.0,-999.0,29,-99.99,,,-99.99,,2013-04-23 22:03:00,
2013-04-23 15:12:00,51.0,26.0,-100.00,North,-999,-999.0,-999.0,38,-99.99,,,-99.99,,2013-04-23 22:12:00,
2013-04-23 15:22:00,51.0,28.0,-100.00,North,-999,-999.0,-999.0,41,-99.99,,,-99.99,,2013-04-23 22:22:00,
2013-04-23 15:33:00,51.0,28.0,-100.00,North,-999,-999.0,-999.0,41,-99.99,,,-99.99,,2013-04-23 22:33:00,
2013-04-23 15:42:00,52.0,23.0,-100.00,North,-999,-999.0,-999.0,32,-99.99,,,-99.99,,2013-04-23 22:42:00,
2013-04-23 15:52:00,52.0,23.0,-100.00,North,-999,-999.0,-999.0,32,-99.99,,,-99.99,,2013-04-23 22:52:00,
2013-04-23 16:02:00,52.0,23.0,-100.00,North,-999,-999.0,-999.0,32,-99.99,,,-99.99,,2013-04-23 23:02:00,
2013-04-23 16:12:00,51.0,26.0,-100.00,North,-999,-999.0,-999.0,37,-99.99,,,-99.99,,2013-04-23 23:12:00,
2013-04-23 16:22:00,51.0,26.0,-100.00,North,-999,-999.0,-999.0,38,-99.99,,,-99.99,,2013-04-23 23:22:00,
2013-04-23 16:31:00,51.0,26.0,-100.00,North,-999,-999.0,-999.0,38,-99.99,,,-99.99,,2013-04-23 23:31:00,
2013-04-23 16:42:00,49.0,25.0,-100.00,North,-999,-999.0,-999.0,39,-99.99,,,-99.99,,2013-04-23 23:42:00,
2013-04-23 16:52:00,50.0,25.0,-100.00,North,-999,-999.0,-999.0,38,-99.99,,,-99.99,,2013-04-23 23:52:00,
2013-04-23 17:01:00,50.0,25.0,-100.00,North,-999,-999.0,-999.0,38,-99.99,,,-99.99,,2013-04-24 00:01:00,
2013-04-23 17:11:00,49.0,25.0,-100.00,North,-999,-999.0,-999.0,39,-99.99,,,-99.99,,2013-04-24 00:11:00,
2013-04-23 17:21:00,49.0,24.0,-100.00,North,-999,-999.0,-999.0,37,-99.99,,,-99.99,,2013-04-24 00:21:00,
2013-04-23 17:32:00,49.0,24.0,-100.00,North,-999,-999.0,-999.0,37,-99.99,,,-99.99,,2013-04-24 00:32:00,
2013-04-23 17:41:00,49.0,24.0,-100.00,North,-999,-999.0,-999.0,37,-99.99,,,-99.99,,2013-04-24 00:41:00,
2013-04-23 17:52:00,47.0,26.0,-100.00,North,-999,-999.0,-999.0,44,-99.99,,,-99.99,,2013-04-24 00:52:00,
2013-04-23 18:01:00,47.0,26.0,-100.00,North,-999,-999.0,-999.0,44,-99.99,,,-99.99,,2013-04-24 01:01:00,
2013-04-23 18:11:00,46.0,30.0,-100.00,North,-999,-999.0,-999.0,54,-99.99,,,-99.99,,2013-04-24 01:11:00,
2013-04-23 18:21:00,48.0,29.0,-100.00,North,-999,-999.0,-999.0,49,-99.99,,,-99.99,,2013-04-24 01:21:00,
2013-04-23 18:32:00,48.0,29.0,-100.00,North,-999,-999.0,-999.0,49,-99.99,,,-99.99,,2013-04-24 01:32:00,
2013-04-23 18:42:00,47.0,30.0,-100.00,North,-999,-999.0,-999.0,52,-99.99,,,-99.99,,2013-04-24 01:42:00,
2013-04-23 18:52:00,44.0,31.0,-100.00,North,-999,-999.0,-999.0,59,-99.99,,,-99.99,,2013-04-24 01:52:00,
2013-04-23 19:02:00,44.0,31.0,-100.00,North,-999,-999.0,-999.0,59,-99.99,,,-99.99,,2013-04-24 02:02:00,
2013-04-23 19:26:00,47.0,29.0,-100.00,North,-999,-999.0,-999.0,50,-99.99,,,-99.99,,2013-04-24 02:26:00,
2013-04-23 19:46:00,48.0,26.0,-100.00,North,-999,-999.0,-999.0,41,-99.99,,,-99.99,,2013-04-24 02:46:00,
2013-04-23 19:58:00,47.0,26.0,-100.00,North,-999,-999.0,-999.0,42,-99.99,,,-99.99,,2013-04-24 02:58:00,
2013-04-23 20:05:00,47.0,26.0,-100.00,North,-999,-999.0,-999.0,42,-99.99,,,-99.99,,2013-04-24 03:05:00,
2013-04-23 20:14:00,45.0,28.0,-100.00,North,-999,-999.0,-999.0,51,-99.99,,,-99.99,,2013-04-24 03:14:00,
2013-04-23 20:26:00,45.0,28.0,-100.00,North,-999,-999.0,-999.0,51,-99.99,,,-99.99,,2013-04-24 03:26:00,
2013-04-23 20:36:00,45.0,28.0,-100.00,North,-999,-999.0,-999.0,51,-99.99,,,-99.99,,2013-04-24 03:36:00,
2013-04-23 20:47:00,45.0,27.0,-100.00,North,-999,-999.0,-999.0,50,-99.99,,,-99.99,,2013-04-24 03:47:00,
2013-04-23 20:59:00,42.0,29.0,-100.00,North,-999,-999.0,-999.0,60,-99.99,,,-99.99,,2013-04-24 03:59:00,
2013-04-23 21:02:00,42.0,29.0,-100.00,North,-999,-999.0,-999.0,60,-99.99,,,-99.99,,2013-04-24 04:02:00,
2013-04-23 21:12:00,40.0,29.0,-100.00,North,-999,-999.0,-999.0,66,-99.99,,,-99.99,,2013-04-24 04:12:00,
2013-04-23 21:22:00,38.0,28.0,-100.00,North,-999,-999.0,-999.0,65,-99.99,,,-99.99,,2013-04-24 04:22:00,
2013-04-23 21:33:00,38.0,28.0,-100.00,North,-999,-999.0,-999.0,65,-99.99,,,-99.99,,2013-04-24 04:33:00,
2013-04-23 21:43:00,37.0,28.0,-100.00,North,-999,-999.0,-999.0,68,-99.99,,,-99.99,,2013-04-24 04:43:00,
2013-04-23 21:53:00,37.0,28.0,-100.00,North,-999,-999.0,-999.0,71,-99.99,,,-99.99,,2013-04-24 04:53:00,
2013-04-23 22:02:00,37.0,28.0,-100.00,North,-999,-999.0,-999.0,71,-99.99,,,-99.99,,2013-04-24 05:02:00,
2013-04-23 22:12:00,37.0,26.0,-100.00,North,-999,-999.0,-999.0,64,-99.99,,,-99.99,,2013-04-24 05:12:00,
2013-04-23 22:21:00,37.0,26.0,-100.00,North,-999,-999.0,-999.0,65,-99.99,,,-99.99,,2013-04-24 05:21:00,
2013-04-23 22:32:00,37.0,26.0,-100.00,North,-999,-999.0,-999.0,65,-99.99,,,-99.99,,2013-04-24 05:32:00,
2013-04-23 22:42:00,37.0,28.0,-100.00,North,-999,-999.0,-999.0,71,-99.99,,,-99.99,,2013-04-24 05:42:00,
2013-04-23 22:52:00,36.0,26.0,-100.00,North,-999,-999.0,-999.0,68,-99.99,,,-99.99,,2013-04-24 05:52:00,
2013-04-23 23:02:00,36.0,26.0,-100.00,North,-999,-999.0,-999.0,68,-99.99,,,-99.99,,2013-04-24 06:02:00,
2013-04-23 23:11:00,36.0,26.0,-100.00,North,-999,-999.0,-999.0,68,-99.99,,,-99.99,,2013-04-24 06:11:00,
2013-04-23 23:21:00,35.0,26.0,-100.00,North,-999,-999.0,-999.0,70,-99.99,,,-99.99,,2013-04-24 06:21:00,
2013-04-23 23:32:00,35.0,26.0,-100.00,North,-999,-999.0,-999.0,70,-99.99,,,-99.99,,2013-04-24 06:32:00,
2013-04-23 23:42:00,40.0,23.0,-100.00,North,-999,-999.0,-999.0,50,-99.99,,,-99.99,,2013-04-24 06:42:00,
2013-04-23 23:52:00,43.0,19.0,-100.00,North,-999,-999.0,-999.0,37,-99.99,,,-99.99,,2013-04-24 06:52:00,